Big Bear City, CA

10:17 PM PDT on May 21, 2018 (GMT -0700)
Big Bear City

Weather History for KL35 - October, 2012

Change the Weather History Date:

Tuesday, October 16, 2012

  Actual Average (KBUO) Record (KBUO)
Temperature  
Mean Temperature 50 °F -  
Max Temperature 71 °F 77 °F 89 °F (1997)
Min Temperature 30 °F 51 °F 46 °F (2000)
Degree Days  
Heating Degree Days 14    
Moisture  
Dew Point 21 °F    
Average Humidity 40    
Maximum Humidity 64    
Minimum Humidity 11    
Precipitation  
Precipitation 0.00 in - - ()
Sea Level Pressure  
Sea Level Pressure 30.17 in    
Wind  
Wind Speed 1 mph (ENE)    
Max Wind Speed 10 mph    
Max Gust Speed -    
Visibility 10 miles    
Events      
Averages and records for this station are not official NWS values.
T = Trace of Precipitation, MM = Missing Value Source: NWS Daily Summary

Daily Weather History Graph

Daily Weather History Graph

Search for Another Location

Airport or City:

Astronomy

Oct. 16, 2012 Rise Set
Actual Time 6:54 AM PDT 6:11 PM PDT
Civil Twilight 6:28 AM PDT 6:36 PM PDT
Nautical Twilight 5:59 AM PDT 7:05 PM PDT
Astronomical Twilight 5:30 AM PDT 7:34 PM PDT
Moon 8:16 AM PDT (10/16) 7:05 PM PDT (10/16)
Length of Visible Light 12h 07m
Length of Day
11h 17m
New Moon, 2% of the Moon is Illuminated
Oct 16
New Moon
Oct 21
First Quarter
Oct 29
Full
Nov 6
Last Quarter
Nov 13
New

Hourly Weather History & Observations

Time (PDT) Temp. Windchill Dew Point Humidity Pressure Visibility Wind Dir Wind Speed Gust Speed Precip Events Conditions
12:15 AM 33.8 °F - 19.4 °F 56% 30.23 in 10.0 mi Calm Calm - N/A   Clear
12:35 AM 33.8 °F - 21.2 °F 60% 30.22 in 10.0 mi Calm Calm - N/A   Clear
12:55 AM 33.8 °F - 21.2 °F 60% 30.22 in 10.0 mi Calm Calm - N/A   Clear
1:15 AM 32.0 °F - 21.2 °F 64% 30.22 in 10.0 mi Calm Calm - N/A   Clear
1:35 AM 32.0 °F - 21.2 °F 64% 30.22 in 10.0 mi Calm Calm - N/A   Clear
1:55 AM 32.0 °F - 21.2 °F 64% 30.22 in 10.0 mi Calm Calm - N/A   Clear
2:15 AM 32.0 °F - 21.2 °F 64% 30.22 in 10.0 mi Calm Calm - N/A   Clear
2:35 AM 32.0 °F - 21.2 °F 64% 30.21 in 10.0 mi Calm Calm - N/A   Clear
2:55 AM 32.0 °F - 21.2 °F 64% 30.20 in 10.0 mi Calm Calm - N/A   Clear
3:15 AM 32.0 °F - 19.4 °F 60% 30.20 in 10.0 mi Calm Calm - N/A   Clear
3:35 AM 32.0 °F - 21.2 °F 64% 30.20 in 10.0 mi Calm Calm - N/A   Clear
3:55 AM 32.0 °F - 19.4 °F 60% 30.20 in 10.0 mi Calm Calm - N/A   Clear
4:15 AM 32.0 °F - 19.4 °F 60% 30.19 in 10.0 mi Calm Calm - N/A   Clear
4:35 AM 32.0 °F - 19.4 °F 60% 30.19 in 10.0 mi Calm Calm - N/A   Clear
4:55 AM 30.2 °F - 19.4 °F 64% 30.19 in 10.0 mi Calm Calm - N/A   Clear
5:15 AM 30.2 °F - 19.4 °F 64% 30.19 in 10.0 mi Calm Calm - N/A   Clear
5:35 AM 30.2 °F - 19.4 °F 64% 30.19 in 10.0 mi Calm Calm - N/A   Clear
5:55 AM 30.2 °F - 19.4 °F 64% 30.19 in 10.0 mi Calm Calm - N/A   Clear
6:15 AM 30.2 °F - 17.6 °F 60% 30.19 in 10.0 mi Calm Calm - N/A   Clear
6:35 AM 30.2 °F - 19.4 °F 64% 30.20 in 10.0 mi Calm Calm - N/A   Clear
6:55 AM 30.2 °F - 17.6 °F 60% 30.20 in 10.0 mi Calm Calm - N/A   Clear
7:15 AM 30.2 °F - 17.6 °F 60% 30.20 in 10.0 mi Calm Calm - N/A   Clear
7:35 AM 32.0 °F - 19.4 °F 60% 30.20 in 10.0 mi Calm Calm - N/A   Clear
7:55 AM 32.0 °F - 17.6 °F 55% 30.20 in 10.0 mi Calm Calm - N/A   Clear
8:15 AM 37.4 °F - 21.2 °F 52% 30.21 in 10.0 mi Calm Calm - N/A   Clear
8:35 AM 42.8 °F - 28.4 °F 57% 30.21 in 10.0 mi Calm Calm - N/A   Clear
8:55 AM 46.4 °F - 28.4 °F 50% 30.21 in 10.0 mi Calm Calm - N/A   Clear
9:15 AM 51.8 °F - 24.8 °F 35% 30.21 in 10.0 mi Calm Calm - N/A   Clear
9:35 AM 55.4 °F - 21.2 °F 26% 30.21 in 10.0 mi Calm Calm - N/A   Clear
9:55 AM 59.0 °F - 23.0 °F 25% 30.20 in 10.0 mi NE 3.5 mph - N/A   Clear
10:15 AM 62.6 °F - 19.4 °F 19% 30.20 in 10.0 mi ENE 3.5 mph - N/A   Clear
10:35 AM 68.0 °F - 14.0 °F 12% 30.19 in 10.0 mi East 4.6 mph - N/A   Clear
10:55 AM 69.8 °F - 14.0 °F 12% 30.19 in 10.0 mi ESE 4.6 mph - N/A   Clear
11:15 AM 69.8 °F - 17.6 °F 14% 30.19 in 10.0 mi ESE 6.9 mph - N/A   Clear
11:35 AM 69.8 °F - 12.2 °F 11% 30.18 in 10.0 mi ENE 8.1 mph - N/A   Clear
11:55 AM 71.6 °F - 14.0 °F 11% 30.18 in 10.0 mi ENE 5.8 mph - N/A   Clear
12:15 PM 69.8 °F - 14.0 °F 12% 30.17 in 10.0 mi ENE 10.4 mph - N/A   Clear
12:35 PM 71.6 °F - 17.6 °F 13% 30.17 in 10.0 mi NE 6.9 mph - N/A   Clear
12:55 PM 69.8 °F - 19.4 °F 15% 30.16 in 10.0 mi ENE 6.9 mph - N/A   Clear
1:15 PM 71.6 °F - 17.6 °F 13% 30.16 in 10.0 mi East 4.6 mph - N/A   Clear
1:35 PM 71.6 °F - 19.4 °F 14% 30.15 in 10.0 mi ENE 6.9 mph - N/A   Clear
1:55 PM 71.6 °F - 17.6 °F 13% 30.14 in 10.0 mi ESE 5.8 mph - N/A   Clear
2:15 PM 71.6 °F - 17.6 °F 13% 30.13 in 10.0 mi East 8.1 mph - N/A   Clear
2:55 PM 71.6 °F - 17.6 °F 13% 30.12 in 10.0 mi ENE 8.1 mph - N/A   Clear
3:15 PM 71.6 °F - 17.6 °F 13% 30.12 in 10.0 mi ENE 8.1 mph - N/A   Clear
3:35 PM 71.6 °F - 17.6 °F 13% 30.12 in 10.0 mi ENE 9.2 mph - N/A   Clear
3:55 PM 71.6 °F - 17.6 °F 13% 30.11 in 10.0 mi East 9.2 mph - N/A   Clear
4:15 PM 71.6 °F - 17.6 °F 13% 30.11 in 10.0 mi East 8.1 mph - N/A   Clear
4:35 PM 69.8 °F - 17.6 °F 14% 30.11 in 10.0 mi East 9.2 mph - N/A   Clear
4:55 PM 69.8 °F - 17.6 °F 14% 30.11 in 10.0 mi East 5.8 mph - N/A   Clear
5:15 PM 68.0 °F - 17.6 °F 15% 30.11 in 10.0 mi ENE 4.6 mph - N/A   Clear
5:35 PM 68.0 °F - 21.2 °F 17% 30.11 in 10.0 mi Calm Calm - N/A   Clear
5:55 PM 64.4 °F - 28.4 °F 26% 30.11 in 10.0 mi Calm Calm - N/A   Clear
6:15 PM 60.8 °F - 26.6 °F 27% 30.11 in 10.0 mi Calm Calm - N/A   Clear
6:35 PM 57.2 °F - 26.6 °F 31% 30.12 in 10.0 mi Calm Calm - N/A   Clear
6:55 PM 55.4 °F - 24.8 °F 31% 30.12 in 10.0 mi Calm Calm - N/A   Clear
7:15 PM 53.6 °F - 24.8 °F 33% 30.13 in 10.0 mi Calm Calm - N/A   Clear
7:35 PM 51.8 °F - 24.8 °F 35% 30.13 in 10.0 mi Calm Calm - N/A   Clear
7:55 PM 50.0 °F - 24.8 °F 37% 30.14 in 10.0 mi Calm Calm - N/A   Clear
8:15 PM 46.4 °F - 24.8 °F 43% 30.15 in 10.0 mi Calm Calm - N/A   Clear
8:35 PM 44.6 °F - 24.8 °F 46% 30.15 in 10.0 mi Calm Calm - N/A   Clear
8:55 PM 44.6 °F - 24.8 °F 46% 30.15 in 10.0 mi Calm Calm - N/A   Clear
9:15 PM 44.6 °F - 26.6 °F 49% 30.15 in 10.0 mi Calm Calm - N/A   Clear
9:35 PM 42.8 °F - 26.6 °F 53% 30.15 in 10.0 mi Calm Calm - N/A   Clear
9:55 PM 42.8 °F - 24.8 °F 49% 30.15 in 10.0 mi Calm Calm - N/A   Clear
10:15 PM 41.0 °F - 24.8 °F 53% 30.15 in 10.0 mi Calm Calm - N/A   Clear
10:35 PM 41.0 °F - 24.8 °F 53% 30.15 in 10.0 mi Calm Calm - N/A   Clear
10:55 PM 41.0 °F - 26.6 °F 57% 30.14 in 10.0 mi Calm Calm - N/A   Clear
11:15 PM 39.2 °F 37.0 °F 24.8 °F 56% 30.15 in 10.0 mi SSW 3.5 mph - N/A   Clear
11:35 PM 39.2 °F - 26.6 °F 61% 30.15 in 10.0 mi Calm Calm - N/A   Clear
11:55 PM 39.2 °F - 26.6 °F 61% 30.15 in 10.0 mi Calm Calm - N/A   Clear